Location: Azul
(36.7830°S, 59.8500°W)
Time: 18:45:30
(UTC-03:00)

VELOX 1 - Pass Details

Date: 24 October 2021
Orbit: 627 x 641 km, 98.3° (Epoch: 06 December)

Event Time Altitude Azimuth Distance (km) Brightness Sun altitude
Rises 05:00:21 0° 159° (SSE) 2,959 ? -12.6°
Reaches altitude 10° 05:02:42 10° 151° (SSE) 2,041 ? -12.2°
Maximum altitude 05:06:53 40° 81° (E) 941 ? -11.4°
Drops below altitude 10° 05:11:00 10° 11° (N) 2,007 ? -10.7°
Sets 05:13:16 0° 3° (N) 2,905 ? -10.2°
